Lincoln County, Oregon, United States
Lat: 44.65N, Lon: 123.85W
Wx Zone: ORZ004
Local Info
Past Weather Observations for Monday, March 2, 2015

NOTE: This archive is for the closest National Weather Service station to Lincoln County. Information may differ from the station used for current weather conditions.

Click here for Long-term Archive

Time Weather Temperature Dewpoint Humidity Pressure Winds Precip Visibility
23:55
Clear
36°F / 2°C 36°F / 2°C 100% 30.15 in
(1021 mb)
E 5.8 mph
(E 9 kph)
- 10SM
23:35
Clear
36°F / 2°C 36°F / 2°C 100% 30.15 in
(1021 mb)
E 4.6 mph
(E 7 kph)
- 10SM
23:15
Clear
37°F / 3°C 36°F / 2°C 93% 30.15 in
(1021 mb)
SE 3.5 mph
(SE 6 kph)
- 10SM
22:55
Clear
36°F / 2°C 36°F / 2°C 100% 30.15 in
(1021 mb)
SE 3.5 mph
(SE 6 kph)
- 10SM
22:35
Clear
36°F / 2°C 36°F / 2°C 100% 30.15 in
(1021 mb)
E 3.5 mph
(E 6 kph)
- 10SM
22:15
Clear
36°F / 2°C 36°F / 2°C 100% 30.15 in
(1021 mb)
NE 4.6 mph
(NE 7 kph)
- 10SM
21:55
Clear
37°F / 3°C 37°F / 3°C 100% 30.15 in
(1021 mb)
NE 4.6 mph
(NE 7 kph)
- 10SM
21:35
Clear
37°F / 3°C 37°F / 3°C 100% 30.15 in
(1021 mb)
NE 3.5 mph
(NE 6 kph)
- 10SM
21:15
Clear
37°F / 3°C 36°F / 2°C 93% 30.12 in
(1020 mb)
Calm - 10SM
20:55
Clear
41°F / 5°C 37°F / 3°C 87% 30.12 in
(1020 mb)
Calm - 10SM
20:35
Clear
43°F / 6°C 39°F / 4°C 87% 30.12 in
(1020 mb)
Calm - 10SM
20:15
Clear
45°F / 7°C 41°F / 5°C 87% 30.12 in
(1020 mb)
NE 3.5 mph
(NE 6 kph)
- 10SM
19:55
Clear
45°F / 7°C 41°F / 5°C 87% 30.12 in
(1020 mb)
NE 4.6 mph
(NE 7 kph)
- 10SM
19:35
Clear
45°F / 7°C 41°F / 5°C 87% 30.09 in
(1019 mb)
NNE 5.8 mph
(NNE 9 kph)
- 10SM
19:15
Clear
45°F / 7°C 41°F / 5°C 87% 30.09 in
(1019 mb)
NNE 5.8 mph
(NNE 9 kph)
- 10SM
18:55
Clear
45°F / 7°C 41°F / 5°C 87% 30.09 in
(1019 mb)
N 4.6 mph
(N 7 kph)
- 10SM
18:35
Clear
46°F / 8°C 41°F / 5°C 82% 30.06 in
(1018 mb)
N 6.9 mph
(N 11 kph)
- 10SM
18:15
Clear
46°F / 8°C 41°F / 5°C 82% 30.06 in
(1018 mb)
N 5.8 mph
(N 9 kph)
- 10SM
17:55
Clear
48°F / 9°C 43°F / 6°C 82% 30.06 in
(1018 mb)
N 9.2 mph
(N 15 kph)
- 10SM
17:35
Clear
48°F / 9°C 43°F / 6°C 82% 30.06 in
(1018 mb)
N 9.2 mph
(N 15 kph)
- 10SM
17:15
Clear
50°F / 10°C 43°F / 6°C 76% 30.06 in
(1018 mb)
N 11.5 mph
(N 19 kph)
- 10SM
16:55
Partly Cloudy
48°F / 9°C 43°F / 6°C 82% 30.06 in
(1018 mb)
N 11.5 mph
(N 19 kph)
- 10SM
16:35
Mostly Cloudy
50°F / 10°C 43°F / 6°C 76% 30.04 in
(1017 mb)
N 13.8 mph
(N 22 kph)
- 10SM
16:15
Partly Cloudy
50°F / 10°C 43°F / 6°C 76% 30.04 in
(1017 mb)
N 15 mph
(N 24 kph)
- 10SM
15:55
Partly Cloudy
50°F / 10°C 43°F / 6°C 76% 30.04 in
(1017 mb)
N 15 mph
(N 24 kph)
- 10SM
15:35
Partly Cloudy
52°F / 11°C 43°F / 6°C 72% 30.04 in
(1017 mb)
NNW 13.8 mph
(NNW 22 kph)
- 10SM
15:15
Mostly Cloudy
50°F / 10°C 43°F / 6°C 76% 30.04 in
(1017 mb)
NNW 15 mph
(NNW 24 kph)
- 10SM
14:55
Mostly Cloudy
50°F / 10°C 43°F / 6°C 76% 30.04 in
(1017 mb)
NNW 12.7 mph
(NNW 20 kph)
- 10SM
14:35
Mostly Cloudy
50°F / 10°C 43°F / 6°C 76% 30.01 in
(1016 mb)
N 9.2 mph
(N 15 kph)
- 10SM
14:15
Mostly Cloudy
50°F / 10°C 43°F / 6°C 76% 30.01 in
(1016 mb)
NNW 10.4 mph
(NNW 17 kph)
- 10SM
13:55
Overcast
50°F / 10°C 43°F / 6°C 76% 30.01 in
(1016 mb)
NNW 8.1 mph
(NNW 13 kph)
- 10SM
13:35
Overcast
50°F / 10°C 43°F / 6°C 76% 30.01 in
(1016 mb)
NNW 8.1 mph
(NNW 13 kph)
- 10SM
13:15
Overcast
50°F / 10°C 41°F / 5°C 71% 30.01 in
(1016 mb)
NNE 4.6 mph
(NNE 7 kph)
- 10SM
12:55
Overcast
50°F / 10°C 41°F / 5°C 71% 30.01 in
(1016 mb)
N 4.6 mph
(N 7 kph)
- 10SM
12:35
Overcast
48°F / 9°C 41°F / 5°C 76% 30.01 in
(1016 mb)
NNE 5.8 mph
(NNE 9 kph)
- 10SM
12:15
Overcast
48°F / 9°C 41°F / 5°C 76% 30.01 in
(1016 mb)
N 3.5 mph
(N 6 kph)
- 10SM
11:55
Overcast
50°F / 10°C 41°F / 5°C 71% 30.01 in
(1016 mb)
NE 5.8 mph
(NE 9 kph)
- 10SM
11:35
Mostly Cloudy
48°F / 9°C 41°F / 5°C 76% 30.01 in
(1016 mb)
NE 5.8 mph
(NE 9 kph)
- 10SM
11:15
Overcast
48°F / 9°C 41°F / 5°C 76% 30.01 in
(1016 mb)
N 3.5 mph
(N 6 kph)
- 10SM
10:55
Partly Cloudy
48°F / 9°C 41°F / 5°C 76% 30.01 in
(1016 mb)
Calm - 10SM
10:35
Clear
48°F / 9°C 43°F / 6°C 82% 30.01 in
(1016 mb)
ENE 4.6 mph
(ENE 7 kph)
- 10SM
10:15
Partly Cloudy
46°F / 8°C 43°F / 6°C 87% N/A ENE 5.8 mph
(ENE 9 kph)
- 10SM
09:55
Mostly Cloudy
46°F / 8°C 45°F / 7°C 93% 30.01 in
(1016 mb)
E 8.1 mph
(E 13 kph)
- 10SM
09:35
Overcast
45°F / 7°C 45°F / 7°C 100% 30.01 in
(1016 mb)
ESE 5.8 mph
(ESE 9 kph)
- 10SM
09:15
Overcast
45°F / 7°C 45°F / 7°C 100% 30.01 in
(1016 mb)
E 4.6 mph
(E 7 kph)
- 10SM
08:55
Mostly Cloudy
45°F / 7°C 45°F / 7°C 100% 30.01 in
(1016 mb)
E 4.6 mph
(E 7 kph)
- 7SM
08:35
Mostly Cloudy
45°F / 7°C 45°F / 7°C 100% 29.98 in
(1015 mb)
E 3.5 mph
(E 6 kph)
- 10SM
08:15
Mostly Cloudy
43°F / 6°C 43°F / 6°C 100% 29.98 in
(1015 mb)
ENE 3.5 mph
(ENE 6 kph)
- 7SM
07:55
Overcast
43°F / 6°C 43°F / 6°C 100% 29.98 in
(1015 mb)
Calm - 10SM
07:35
Mostly Cloudy
43°F / 6°C 43°F / 6°C 100% 29.98 in
(1015 mb)
ENE 5.8 mph
(ENE 9 kph)
- 10SM
07:15
Mostly Cloudy
43°F / 6°C 43°F / 6°C 100% 29.98 in
(1015 mb)
Calm - 10SM
06:55
Overcast
43°F / 6°C 43°F / 6°C 100% 29.98 in
(1015 mb)
E 3.5 mph
(E 6 kph)
- 10SM
06:35
Overcast
43°F / 6°C 43°F / 6°C 100% 29.98 in
(1015 mb)
Calm - 10SM
06:15
Overcast
43°F / 6°C 43°F / 6°C 100% 29.98 in
(1015 mb)
E 3.5 mph
(E 6 kph)
- 10SM
05:55
Overcast
43°F / 6°C 43°F / 6°C 100% 29.98 in
(1015 mb)
Calm - 10SM
05:35
Overcast
43°F / 6°C 43°F / 6°C 100% 29.98 in
(1015 mb)
Calm - 10SM
05:15
Mostly Cloudy
43°F / 6°C 43°F / 6°C 100% 29.95 in
(1014 mb)
Calm - 10SM
04:55
Overcast
43°F / 6°C 43°F / 6°C 100% 29.98 in
(1015 mb)
Calm - 10SM
04:35
Overcast
Drizzle
43°F / 6°C 43°F / 6°C 100% 29.98 in
(1015 mb)
Calm - 5SM
04:15
Overcast
43°F / 6°C 43°F / 6°C 100% 29.98 in
(1015 mb)
Calm - 7SM
03:55
Overcast
Light Rain
43°F / 6°C 43°F / 6°C 100% 29.95 in
(1014 mb)
Calm 0.03 in
(0.76 mm)
5SM
03:35
Mostly Cloudy
Light Rain
43°F / 6°C 43°F / 6°C 100% 29.95 in
(1014 mb)
Calm 0.01 in
(0.25 mm)
7SM
03:15
Mostly Cloudy
43°F / 6°C 43°F / 6°C 100% 29.98 in
(1015 mb)
Calm 0.01 in
(0.25 mm)
10SM
02:55
Overcast
Rain
43°F / 6°C 43°F / 6°C 100% 29.98 in
(1015 mb)
Calm 0.01 in
(0.25 mm)
5SM
02:35
Overcast
Light Rain
45°F / 7°C 43°F / 6°C 93% 29.98 in
(1015 mb)
Calm 0.01 in
(0.25 mm)
4SM
02:15
Overcast
Drizzle
45°F / 7°C 43°F / 6°C 93% 29.98 in
(1015 mb)
Calm - 4SM
01:55
Overcast
Drizzle
45°F / 7°C 43°F / 6°C 93% 29.98 in
(1015 mb)
Calm 0.03 in
(0.76 mm)
7SM
01:35
Overcast
Light Rain
45°F / 7°C 43°F / 6°C 93% 30.01 in
(1016 mb)
Calm 0.02 in
(0.51 mm)
10SM
01:15
Mostly Cloudy
Light Rain
45°F / 7°C 43°F / 6°C 93% 30.01 in
(1016 mb)
Calm 0.01 in
(0.25 mm)
7SM
00:55
Overcast
Light Rain
45°F / 7°C 43°F / 6°C 93% 30.01 in
(1016 mb)
E 3.5 mph
(E 6 kph)
0.02 in
(0.51 mm)
5SM
00:35
Mostly Cloudy
Rain
45°F / 7°C 43°F / 6°C 93% 30.01 in
(1016 mb)
Calm - 7SM
00:15
Mostly Cloudy
Drizzle
45°F / 7°C 43°F / 6°C 93% 30.01 in
(1016 mb)
Calm - 10SM
Time Weather Temperature Dewpoint Humidity Pressure Winds Precip Visibility


Weather for websites

WeatherForYou.com, LLC is not responsible for any damages or problems caused by this service. Current weather conditions are obtained from the closest station including government and personal stations which may have varying degrees of accuracy. Weather forecasts are derived from the NOAA NDFD. Like all things, this site belongs to Jesus Christ... He just trusts me to maintain it. If you have any questions or comments email webmaster@weatherforyou.com

Copyright © 2015, WeatherForYou.com LLC. All rights reserved.